Location: Kawakawa
(35.3830°S, 174.0670°E)
Time: 22:46:06
(UTC+13:00)

ISS - Pass Details

Date: 29 January 2019
Orbit: 403 x 411 km, 51.6° (Epoch: 18 February)

Event Time Altitude Azimuth Distance (km) Brightness Sun altitude
Exits shadow 04:42:25 25° 48° (NE) 880 -2.1 -20.7°
Maximum altitude 04:42:29 25° 50° (NE) 879 -2.1 -20.7°
Drops below altitude 10° 04:45:17 10° 107° (ESE) 1,490 0.0 -20.3°
Sets 04:47:36 0° 120° (ESE) 2,357 1.5 -19.9°
